• In Germany
  • List of Countries
  • For 7 days
  • Water Temperature
  • Satellite Maps
  • Weather Map
  • Weather Widgets
  • user-avatar
    Login

    Hourly Weather Montana

    Today, 21 August, Monday

    Time Temperature Precipitation Wind Pressure Humidity
    00:00 +21°C° 0 mm 3 mps 733 mmHg 72%
    01:00 +20°C° 0 mm 3 mps 733 mmHg 76%
    02:00 +20°C° 0 mm 3 mps 733 mmHg 79%
    03:00 +20°C° 0.1 mm 3 mps 733 mmHg 80%
    04:00 +19°C° 0.1 mm 3 mps 733 mmHg 81%
    05:00 +19°C° 0.1 mm 3 mps 733 mmHg 82%
    06:00 +20°C° 0.1 mm 3 mps 733 mmHg 80%
    07:00 +20°C° 0.1 mm 3 mps 734 mmHg 77%
    08:00 +20°C° 0.1 mm 4 mps 734 mmHg 75%
    09:00 +21°C° 0 mm 4 mps 734 mmHg 71%
    10:00 +22°C° 0 mm 4 mps 734 mmHg 67%
    11:00 +22°C° 0 mm 4 mps 734 mmHg 63%
    12:00 +23°C° 0 mm 5 mps 734 mmHg 60%
    13:00 +23°C° 0 mm 5 mps 733 mmHg 58%
    14:00 +25°C° 0 mm 5 mps 733 mmHg 56%
    15:00 +23°C° 0 mm 5 mps 733 mmHg 56%
    16:00 +23°C° 0 mm 5 mps 733 mmHg 57%
    17:00 +23°C° 0 mm 5 mps 733 mmHg 58%
    18:00 +22°C° 0 mm 4 mps 733 mmHg 61%
    19:00 +21°C° 0 mm 4 mps 733 mmHg 63%
    20:00 +19°C° 0 mm 3 mps 733 mmHg 66%
    21:00 +19°C° 0 mm 3 mps 733 mmHg 67%
    22:00 +18°C° 0 mm 3 mps 733 mmHg 69%
    23:00 +17°C° 0 mm 3 mps 734 mmHg 70%

    Tomorrow, 22 August, Tuesday

    Time Temperature Precipitation Wind Pressure Humidity
    00:00 +17°C° 0 mm 3 mps 734 mmHg 71%
    01:00 +16°C° 0 mm 3 mps 734 mmHg 71%
    02:00 +16°C° 0 mm 3 mps 734 mmHg 72%
    03:00 +14°C° 0 mm 3 mps 734 mmHg 73%
    04:00 +14°C° 0 mm 3 mps 734 mmHg 73%
    05:00 +13°C° 0 mm 3 mps 734 mmHg 74%
    06:00 +14°C° 0 mm 3 mps 734 mmHg 68%
    07:00 +17°C° 0 mm 4 mps 734 mmHg 61%
    08:00 +18°C° 0 mm 4 mps 734 mmHg 55%
    09:00 +20°C° 0 mm 4 mps 735 mmHg 48%
    10:00 +22°C° 0 mm 5 mps 735 mmHg 42%
    11:00 +23°C° 0 mm 5 mps 735 mmHg 36%
    12:00 +25°C° 0 mm 5 mps 734 mmHg 33%
    13:00 +26°C° 0 mm 5 mps 734 mmHg 30%
    14:00 +27°C° 0 mm 6 mps 734 mmHg 27%
    15:00 +27°C° 0 mm 6 mps 734 mmHg 28%
    16:00 +27°C° 0 mm 5 mps 733 mmHg 29%
    17:00 +26°C° 0 mm 5 mps 733 mmHg 30%
    18:00 +23°C° 0 mm 5 mps 734 mmHg 36%
    19:00 +21°C° 0 mm 4 mps 734 mmHg 42%
    20:00 +19°C° 0 mm 3 mps 734 mmHg 48%
    21:00 +18°C° 0 mm 3 mps 734 mmHg 52%
    22:00 +17°C° 0 mm 3 mps 735 mmHg 55%
    23:00 +16°C° 0 mm 2 mps 735 mmHg 59%

    Day after tomorrow, 23 August, Wednesday

    Time Temperature Precipitation Wind Pressure Humidity
    00:00 +16°C° 0 mm 2 mps 735 mmHg 61%
    01:00 +15°C° 0 mm 2 mps 735 mmHg 63%
    02:00 +15°C° 0 mm 2 mps 735 mmHg 65%
    03:00 +15°C° 0 mm 2 mps 735 mmHg 66%
    04:00 +14°C° 0 mm 2 mps 735 mmHg 67%
    05:00 +14°C° 0 mm 2 mps 735 mmHg 68%
    06:00 +16°C° 0 mm 2 mps 735 mmHg 61%
    07:00 +18°C° 0 mm 2 mps 736 mmHg 55%
    08:00 +20°C° 0 mm 2 mps 736 mmHg 49%
    09:00 +22°C° 0 mm 3 mps 736 mmHg 43%
    10:00 +23°C° 0 mm 4 mps 736 mmHg 37%
    11:00 +26°C° 0 mm 5 mps 736 mmHg 31%
    12:00 +27°C° 0 mm 5 mps 736 mmHg 31%
    13:00 +27°C° 0 mm 5 mps 735 mmHg 30%
    14:00 +27°C° 0 mm 5 mps 735 mmHg 29%
    15:00 +27°C° 0 mm 5 mps 735 mmHg 30%
    16:00 +27°C° 0 mm 5 mps 735 mmHg 31%
    17:00 +27°C° 0 mm 5 mps 735 mmHg 31%
    18:00 +25°C° 0 mm 4 mps 735 mmHg 37%
    19:00 +21°C° 0 mm 3 mps 736 mmHg 43%
    20:00 +19°C° 0 mm 2 mps 736 mmHg 48%
    21:00 +18°C° 0 mm 2 mps 736 mmHg 51%
    22:00 +18°C° 0 mm 2 mps 736 mmHg 54%
    23:00 +17°C° 0 mm 2 mps 737 mmHg 56%

    24 August, Thursday

    Time Temperature Precipitation Wind Pressure Humidity
    00:00 +16°C° 0 mm 2 mps 737 mmHg 57%
    01:00 +16°C° 0 mm 2 mps 737 mmHg 59%
    02:00 +16°C° 0 mm 2 mps 737 mmHg 60%
    03:00 +15°C° 0 mm 2 mps 737 mmHg 61%
    04:00 +15°C° 0 mm 1 mps 737 mmHg 62%
    05:00 +14°C° 0 mm 1 mps 737 mmHg 63%
    06:00 +16°C° 0 mm 1 mps 737 mmHg 58%
    07:00 +19°C° 0 mm 1 mps 737 mmHg 52%
    08:00 +21°C° 0 mm 1 mps 738 mmHg 46%
    09:00 +23°C° 0 mm 1 mps 738 mmHg 40%
    10:00 +25°C° 0 mm 2 mps 738 mmHg 34%
    11:00 +27°C° 0 mm 2 mps 738 mmHg 28%
    12:00 +28°C° 0 mm 2 mps 738 mmHg 25%
    13:00 +29°C° 0 mm 2 mps 737 mmHg 23%
    14:00 +30°C° 0 mm 2 mps 737 mmHg 20%
    15:00 +30°C° 0 mm 2 mps 737 mmHg 21%
    16:00 +30°C° 0 mm 2 mps 737 mmHg 21%
    17:00 +29°C° 0 mm 2 mps 737 mmHg 21%
    18:00 +27°C° 0 mm 2 mps 737 mmHg 25%
    19:00 +24°C° 0 mm 1 mps 737 mmHg 29%
    20:00 +21°C° 0 mm 1 mps 737 mmHg 33%
    21:00 +21°C° 0 mm 1 mps 737 mmHg 35%
    22:00 +20°C° 0 mm 1 mps 738 mmHg 36%
    23:00 +19°C° 0 mm 1 mps 738 mmHg 37%

    25 August, Friday

    Time Temperature Precipitation Wind Pressure Humidity
    00:00 +19°C° 0 mm 1 mps 738 mmHg 38%
    01:00 +18°C° 0 mm 1 mps 738 mmHg 39%
    02:00 +18°C° 0 mm 1 mps 738 mmHg 40%
    03:00 +16°C° 0 mm 1 mps 738 mmHg 41%
    04:00 +16°C° 0 mm 1 mps 738 mmHg 42%
    05:00 +16°C° 0 mm 1 mps 738 mmHg 43%
    06:00 +19°C° 0 mm 1 mps 738 mmHg 40%
    07:00 +20°C° 0 mm 1 mps 738 mmHg 38%
    08:00 +22°C° 0 mm 1 mps 739 mmHg 35%
    09:00 +25°C° 0 mm 1 mps 739 mmHg 30%
    10:00 +27°C° 0 mm 1 mps 739 mmHg 26%
    11:00 +29°C° 0 mm 1 mps 739 mmHg 22%
    12:00 +30°C° 0 mm 2 mps 739 mmHg 21%
    13:00 +31°C° 0 mm 2 mps 738 mmHg 19%
    14:00 +32°C° 0 mm 2 mps 738 mmHg 17%
    15:00 +32°C° 0 mm 2 mps 738 mmHg 18%
    16:00 +32°C° 0 mm 2 mps 738 mmHg 18%
    17:00 +31°C° 0 mm 2 mps 737 mmHg 18%
    18:00 +29°C° 0 mm 2 mps 738 mmHg 23%
    19:00 +26°C° 0 mm 2 mps 738 mmHg 27%
    20:00 +23°C° 0 mm 2 mps 738 mmHg 31%
    21:00 +21°C° 0 mm 2 mps 738 mmHg 33%
    22:00 +21°C° 0 mm 1 mps 738 mmHg 35%
    23:00 +21°C° 0 mm 1 mps 738 mmHg 37%

    26 August, Saturday

    Time Temperature Precipitation Wind Pressure Humidity
    00:00 +20°C° 0 mm 1 mps 738 mmHg 38%
    01:00 +20°C° 0 mm 1 mps 738 mmHg 39%
    02:00 +19°C° 0 mm 1 mps 738 mmHg 41%
    03:00 +19°C° 0 mm 1 mps 738 mmHg 42%
    04:00 +18°C° 0 mm 1 mps 738 mmHg 43%
    05:00 +18°C° 0 mm 1 mps 738 mmHg 44%
    06:00 +20°C° 0 mm 1 mps 739 mmHg 42%
    07:00 +21°C° 0 mm 1 mps 739 mmHg 39%
    08:00 +23°C° 0 mm 1 mps 739 mmHg 37%
    09:00 +25°C° 0 mm 1 mps 739 mmHg 33%
    10:00 +28°C° 0 mm 2 mps 739 mmHg 29%
    11:00 +30°C° 0 mm 2 mps 739 mmHg 24%
    12:00 +31°C° 0 mm 3 mps 739 mmHg 22%
    13:00 +33°C° 0 mm 3 mps 738 mmHg 20%
    14:00 +34°C° 0 mm 3 mps 738 mmHg 19%
    15:00 +34°C° 0 mm 3 mps 737 mmHg 19%
    16:00 +34°C° 0 mm 4 mps 737 mmHg 20%
    17:00 +33°C° 0 mm 4 mps 737 mmHg 20%
    18:00 +30°C° 0 mm 3 mps 737 mmHg 25%
    19:00 +27°C° 0 mm 3 mps 737 mmHg 30%
    20:00 +24°C° 0 mm 2 mps 737 mmHg 34%
    21:00 +23°C° 0 mm 2 mps 737 mmHg 36%
    22:00 +21°C° 0 mm 2 mps 737 mmHg 38%
    23:00 +21°C° 0 mm 1 mps 737 mmHg 40%
    Show more